Wind_Gust
12 11 11 11 10 9 9 10 12 13 12 12 12 11 10 10 11 10 11 11 12 13 13 13 13 13 13 14 14 13 13 14 12 11 12 11 9 10 10 12 13 12 14 12 13 14 15 14 14 13 9 11 12 11 13 13 13 12 12 13 14 13 16 19 24 27 22 15 19 23 22 22 25 21 25 25 26 24 19 21 24 24 23 23 26
11 11 8 9 8 10 12 12 13 13 12 11 12 11 10 10 9 11 12 10 13 14 13 13 13 13 13 14 14 13 12 12 12 12 13 13 11 8 11 11 11 11 12 11 12 13 12 12 11 8 8 10 10 12 13 14 15 15 15 15 14 14 14 20 22 24 31 24 21 23 24 20 30 23 27 27 26 25 25 24 22 21 23 23 24
10 11 12 11 11 12 13 13 14 13 13 10 10 10 9 9 12 15 13 12 13 14 14 14 13 13 14 14 13 12 12 11 11 12 12 12 11 8 7 9 10 10 11 11 11 10 10 10 7 6 7 10 10 11 11 14 14 14 15 13 13 13 14 14 19 25 27 29 24 29 26 26 26 27 27 26 24 24 26 25 24 22 20 21 23
13 12 11 11 11 12 12 13 15 13 13 11 11 9 10 10 12 14 13 13 15 13 14 14 14 14 14 13 13 12 12 11 11 11 10 11 11 10 7 8 7 8 10 10 10 9 7 7 6 7 7 10 9 11 12 13 13 12 11 11 11 12 14 14 15 18 22 26 24 26 23 25 27 27 27 25 27 26 24 26 22 22 23 23 21
13 13 13 12 11 12 11 12 13 13 12 12 11 11 10 12 13 13 14 14 13 14 14 14 15 14 15 13 11 11 11 11 11 12 11 10 10 11 8 5 8 7 8 9 10 8 6 7 7 9 9 9 8 11 14 14 13 12 10 11 11 12 15 15 16 16 20 22 25 22 22 24 25 27 29 34 32 27 23 24 23 24 24 22 22
14 15 14 13 12 12 12 12 12 12 12 11 11 11 12 12 13 13 14 15 13 14 14 14 15 15 13 11 9 9 9 9 10 9 10 11 11 10 10 6 7 6 7 8 8 6 7 7 9 10 9 8 7 10 11 10 10 11 11 12 12 12 13 14 15 16 17 21 24 29 21 27 27 24 27 28 32 32 27 25 23 22 25 26 23
15 15 13 13 13 13 13 12 13 12 12 12 12 12 13 13 13 14 14 15 15 14 14 14 14 14 12 10 9 8 8 9 10 10 9 9 9 9 10 7 6 6 5 7 7 7 10 8 9 7 7 5 6 8 8 8 10 11 12 12 12 12 13 13 15 15 16 18 19 18 23 21 23 29 25 26 28 29 34 37 35 26 23 24 28
15 14 13 13 13 14 12 11 11 11 10 11 12 13 13 13 13 13 14 15 14 14 14 14 13 12 11 9 8 7 8 9 9 9 8 8 9 9 7 8 5 6 6 5 6 7 9 8 6 5 6 4 5 5 6 8 7 11 13 12 13 13 13 14 14 15 16 17 18 22 20 22 21 20 23 24 26 25 26 29 36 38 37 30 24
15 14 14 13 13 13 12 11 10 10 12 12 12 13 14 12 12 13 14 14 15 15 13 14 13 12 10 8 8 8 9 9 7 8 10 10 8 8 8 7 6 5 6 5 6 5 6 6 5 7 6 11 7 6 8 8 9 10 13 12 14 14 14 14 15 16 16 16 21 19 22 21 21 23 25 26 29 31 32 28 35 32 37 40 35
17 16 16 15 13 13 13 10 11 12 13 13 13 13 13 12 14 15 15 15 16 16 15 13 11 10 8 7 7 9 9 7 9 9 8 5 7 7 8 6 5 5 6 4 3 3 4 5 6 12 8 8 9 9 10 12 12 12 13 13 14 14 14 15 17 17 17 19 20 22 24 23 24 24 26 26 26 27 27 29 32 33 33 36 36
17 16 16 14 14 13 13 12 13 13 12 12 12 13 13 14 16 16 15 15 16 16 15 13 10 9 7 7 8 8 8 8 10 10 10 9 7 6 6 7 6 5 6 6 4 3 4 6 5 8 8 8 8 10 10 13 14 16 17 18 16 18 16 17 18 17 20 20 20 21 22 25 24 25 25 27 26 26 28 29 30 31 31 33 41
18 17 16 15 14 13 13 13 13 13 12 11 12 12 14 16 16 14 15 15 15 15 14 12 11 8 8 7 7 7 7 9 12 14 16 16 11 8 8 9 9 8 8 5 5 5 6 6 4 5 7 7 8 7 9 13 15 17 19 19 19 20 17 17 20 21 19 21 22 22 23 24 27 25 27 28 30 29 27 27 27 28 31 34 36
18 18 17 17 16 15 14 15 14 12 12 13 12 13 15 15 14 14 15 14 13 15 13 13 11 9 9 8 7 6 6 9 12 15 15 15 16 11 9 7 10 10 10 14 5 4 6 7 4 7 9 11 11 8 7 11 14 19 19 18 17 18 19 20 19 20 19 19 20 23 23 26 27 27 27 31 31 31 31 30 28 28 28 31 33
18 18 18 17 16 15 15 15 14 13 12 12 13 13 14 14 12 13 14 13 14 13 12 12 10 9 9 9 7 6 6 8 12 15 16 16 15 11 9 8 10 11 11 15 10 5 8 6 3 7 8 9 10 9 8 10 16 17 16 16 15 17 18 19 19 21 19 17 18 22 25 21 28 27 29 28 31 34 34 33 31 32 31 35 33
19 18 18 17 16 16 16 15 15 14 13 13 14 13 13 12 13 13 14 14 14 13 13 11 10 9 8 7 8 8 6 9 12 14 15 16 14 11 10 10 11 10 10 11 12 3 6 6 4 6 8 11 12 14 12 14 16 17 16 15 15 16 17 17 17 17 17 16 17 19 23 22 23 26 28 29 28 30 29 32 35 34 36 33 29
19 18 18 17 17 17 17 16 15 14 14 15 15 14 12 12 14 12 12 11 10 10 9 10 9 9 8 8 9 6 5 8 11 13 14 14 12 11 8 9 10 10 11 10 10 6 4 6 7 9 10 11 14 18 19 18 16 17 17 16 16 16 17 15 19 19 20 20 19 21 23 25 24 29 31 33 31 29 28 28 27 28 30 30 33
19 19 18 18 18 17 17 18 16 16 16 16 15 14 13 12 11 11 13 12 12 11 10 9 9 10 8 7 8 6 5 6 9 11 12 13 10 9 7 9 9 10 10 8 7 7 6 6 7 9 10 12 16 19 22 19 17 18 16 16 17 16 19 18 16 18 20 22 24 25 26 26 26 28 29 30 30 31 31 30 28 27 27 30 31
19 19 19 18 18 17 17 18 18 17 16 16 15 13 12 11 11 12 15 13 12 11 10 10 9 10 9 8 9 7 3 3 6 9 10 10 8 7 6 9 9 8 11 11 10 8 7 12 13 9 12 14 17 20 24 21 18 17 15 16 19 19 20 17 17 18 17 20 22 24 25 25 26 27 26 27 29 27 29 31 32 28 27 27 37
20 20 19 17 17 17 17 17 17 17 16 15 15 14 14 14 12 12 13 12 12 11 11 11 9 7 9 9 11 10 6 3 4 6 7 6 6 5 6 7 8 10 10 11 11 11 12 11 13 15 15 17 19 21 25 23 16 16 15 14 17 18 21 18 21 22 21 21 22 23 25 24 26 26 27 27 28 26 27 28 29 27 27 30 29
18 18 18 19 18 18 17 18 16 16 16 14 13 14 13 13 13 13 12 13 12 10 10 11 11 10 8 10 10 9 7 4 2 2 5 6 5 5 6 8 7 7 8 8 10 12 11 11 13 13 17 18 21 23 24 24 19 15 13 13 15 20 20 18 20 22 21 22 23 24 27 27 27 26 25 26 27 24 26 25 26 27 27 28 28
18 19 19 18 18 18 17 18 18 14 14 15 15 13 13 14 13 13 13 12 12 11 12 10 10 9 7 8 9 7 8 6 3 3 4 6 5 6 4 3 3 4 6 8 8 10 13 13 13 14 18 20 22 24 23 22 19 16 12 12 13 21 20 17 22 19 20 21 22 24 27 26 27 26 26 26 26 26 25 24 25 24 27 28 25
19 18 19 19 18 17 17 15 16 16 13 14 14 13 12 13 13 13 13 14 14 13 10 11 11 10 8 6 7 8 8 9 4 3 3 6 6 6 6 4 2 2 8 7 9 10 11 11 12 17 20 21 21 22 22 19 19 13 17 16 19 21 22 16 16 18 20 21 22 25 27 28 28 27 26 27 28 28 26 25 24 24 23 23 25
19 19 18 18 17 17 17 17 15 14 14 14 14 14 11 12 11 12 14 13 14 12 12 11 9 8 7 8 6 6 6 5 6 3 3 6 5 8 6 4 7 3 3 7 8 12 9 10 15 19 22 20 19 21 19 18 12 14 18 19 18 21 16 15 17 18 20 22 23 25 28 29 29 30 29 30 30 29 28 26 26 26 25 24 23
20 20 18 17 17 17 16 16 14 12 14 14 13 13 12 12 12 13 14 14 13 13 11 11 9 9 10 9 6 6 4 4 4 5 4 6 6 8 9 9 8 6 5 6 8 9 11 13 17 21 22 21 20 18 17 15 17 17 18 19 18 16 15 16 18 19 20 22 24 26 28 29 28 29 31 31 31 31 30 26 25 28 25 25 23
21 20 19 18 18 17 16 15 14 13 13 14 14 13 12 12 14 12 15 14 13 13 12 11 11 11 12 12 9 8 6 4 3 5 7 7 7 8 9 10 11 10 10 9 7 9 12 18 21 21 21 20 19 15 11 13 17 17 17 18 15 14 14 16 19 20 21 23 24 26 27 28 28 27 27 27 26 26 27 27 27 25 23 21 17
21 21 19 18 19 19 17 14 13 14 13 12 13 12 14 14 14 13 13 13 12 11 9 10 10 12 12 12 11 10 6 4 5 5 5 5 5 7 9 9 9 9 7 8 10 14 16 18 20 19 17 17 16 10 10 15 15 17 16 15 13 13 13 16 19 20 21 23 25 27 28 28 30 29 25 23 26 30 30 31 31 32 30 31 27
20 19 20 19 18 18 18 17 16 14 12 11 11 11 12 12 12 12 10 12 10 10 10 8 9 11 12 12 12 9 7 8 8 6 7 8 4 5 7 8 7 7 11 12 12 15 18 17 17 17 14 16 12 9 11 12 13 13 13 13 13 12 13 15 18 19 21 23 25 26 27 27 27 27 29 28 29 29 28 29 28 27 28 27 21
23 21 21 19 19 19 18 15 18 15 14 13 12 10 11 11 11 12 13 12 11 10 10 10 11 12 12 13 12 9 9 9 8 9 11 7 4 4 4 5 5 5 9 10 12 14 13 12 14 14 12 13 13 11 12 12 11 10 12 12 14 12 14 14 13 17 20 21 22 24 26 27 29 29 27 27 27 29 29 30 29 29 28 28 33
20 19 19 18 18 17 17 17 16 15 14 11 11 11 13 11 11 8 7 9 14 15 11 12 11 11 15 15 14 11 10 10 12 9 10 6 4 5 8 8 7 9 6 6 11 13 11 13 13 16 13 10 10 11 13 13 14 13 11 13 14 13 16 18 19 21 22 22 24 25 26 27 28 28 27 28 29 29 29 30 28 29 29 26 27
20 20 19 18 17 16 16 16 14 14 13 12 10 8 7 9 13 15 8 7 10 13 14 13 14 14 14 13 15 17 16 16 11 12 11 8 8 9 10 10 8 8 9 10 7 9 9 9 12 11 12 10 10 10 12 12 13 14 14 10 14 13 16 19 19 20 21 22 22 23 25 25 28 29 28 28 29 28 29 25 31 28 29 30 30
20 19 19 18 19 18 17 16 15 14 12 12 9 13 11 12 12 10 12 10 11 11 10 13 14 13 18 13 10 9 11 11 11 11 10 9 9 10 10 10 10 7 8 10 8 6 7 11 12 12 9 7 7 8 10 11 11 11 14 13 13 14 14 15 18 18 19 20 22 22 22 24 26 27 27 26 26 28 28 26 26 27 29 27 26
23 21 19 17 19 17 17 16 13 13 13 12 12 14 14 11 8 9 9 8 8 9 11 12 12 12 13 13 10 4 6 8 11 10 10 9 9 10 10 10 12 9 8 5 6 11 7 7 9 10 8 8 8 7 10 10 10 11 12 14 17 13 14 16 17 16 18 20 22 22 24 24 25 26 26 25 25 25 26 29 30 29 29 27 28
22 19 18 19 19 18 18 16 15 14 14 14 13 13 15 14 14 6 3 6 7 6 5 4 5 6 6 8 10 8 9 7 9 8 8 9 8 8 11 13 11 10 5 4 6 10 10 7 9 11 8 6 8 6 8 8 8 11 11 11 14 15 14 14 13 17 18 20 20 22 23 24 24 25 25 24 23 25 26 27 27 26 26 28 29
21 21 19 20 19 18 17 17 16 14 13 15 14 14 14 15 14 13 11 4 3 4 4 6 7 6 7 7 7 8 7 7 7 8 9 9 7 7 8 13 17 9 7 5 4 9 11 10 10 10 8 5 6 6 7 8 8 9 11 11 11 12 14 13 15 18 17 20 20 21 22 23 23 25 26 25 23 22 24 25 26 29 29 28 28
19 15 18 17 19 20 19 17 15 12 14 15 15 14 14 13 13 14 14 14 12 12 11 12 10 10 13 10 9 10 9 10 9 10 9 7 6 7 8 12 14 14 15 10 8 10 12 11 11 11 6 4 8 5 7 6 7 9 10 10 10 12 13 14 14 15 17 18 19 20 20 20 22 23 24 25 25 26 25 25 25 26 27 27 26
18 17 17 19 18 17 16 15 13 13 15 15 15 15 14 13 14 13 12 13 12 12 10 12 13 10 14 12 11 9 11 12 11 10 9 6 4 5 9 12 12 11 9 13 10 13 11 11 11 11 8 6 5 7 5 5 7 6 6 8 10 11 12 12 13 15 16 17 17 19 19 21 21 21 22 23 23 22 21 22 22 23 23 25 23
16 16 17 17 16 15 13 12 12 13 10 13 14 14 12 13 13 13 12 12 12 12 13 12 7 7 6 10 13 13 14 13 10 8 9 7 5 4 8 10 12 12 12 14 12 13 12 12 9 10 8 5 4 4 4 8 6 6 6 7 7 10 11 10 12 12 15 16 18 18 18 19 20 20 20 22 23 22 20 20 20 21 21 24 19
20 19 18 17 14 14 13 14 14 11 13 14 14 15 14 15 16 15 14 13 15 15 14 11 8 12 13 18 14 14 16 8 5 8 10 8 7 9 12 12 11 12 15 14 12 13 13 12 10 11 11 7 4 4 4 7 6 5 4 5 7 8 9 12 11 13 13 14 15 16 17 18 18 18 18 20 21 22 22 19 18 19 20 21 20
15 16 18 17 14 18 16 14 14 13 12 14 14 14 14 15 16 15 15 15 15 14 12 11 11 13 16 16 10 6 7 6 9 14 15 13 11 10 11 11 11 13 13 14 14 13 12 12 12 11 9 7 6 5 5 6 8 8 3 4 8 8 11 10 12 12 12 13 15 15 15 16 17 17 16 17 20 19 19 19 18 17 17 20 21
14 13 14 16 14 15 13 13 14 14 13 14 13 13 13 14 15 17 16 15 15 16 15 16 15 15 17 9 7 10 12 16 15 15 13 13 13 12 11 12 13 14 14 14 14 13 12 12 12 11 10 8 7 6 6 6 7 6 3 4 5 9 7 6 10 10 12 12 13 14 15 15 16 16 17 18 18 17 18 18 17 15 15 14 16
15 14 11 13 14 14 12 12 12 14 13 13 13 13 15 15 14 14 15 16 15 15 15 15 16 17 15 17 15 17 17 16 16 14 15 16 14 13 12 13 13 13 14 14 14 12 12 12 12 12 10 8 8 7 7 6 6 8 3 5 4 5 5 6 6 9 10 11 12 13 14 14 14 14 17 17 14 16 17 16 15 16 15 14 13
14 13 15 15 16 15 14 13 12 12 11 12 12 13 12 13 14 13 15 15 15 15 14 14 15 15 13 18 19 21 17 14 12 12 13 14 14 14 14 13 12 13 14 14 13 13 12 12 12 11 11 10 9 10 5 5 6 6 4 5 7 6 5 6 6 6 8 10 10 11 12 14 14 14 15 10 16 15 17 18 16 15 15 15 14
12 13 15 15 15 15 15 15 12 11 11 12 12 9 11 13 14 13 13 14 14 14 14 14 14 12 12 12 19 19 16 13 9 14 13 13 14 14 14 15 15 14 14 14 13 12 13 13 13 12 12 13 12 11 11 11 8 7 6 6 9 9 7 5 5 7 6 9 10 10 11 13 13 13 13 14 15 15 15 16 16 16 15 14 13
13 14 14 15 16 14 13 13 13 12 13 13 13 13 12 11 11 11 12 12 12 12 14 14 13 11 11 8 8 12 13 13 12 13 14 13 14 13 15 15 14 12 12 13 13 11 12 12 12 12 11 12 11 9 10 11 10 9 8 8 8 8 8 6 7 6 5 5 8 10 11 12 12 12 13 14 13 15 16 16 17 16 15 15 15
14 15 14 14 14 14 13 11 13 13 12 11 11 13 13 13 12 12 11 12 12 12 12 13 13 12 11 10 11 14 14 14 14 12 13 14 15 15 15 14 12 13 13 12 11 10 11 12 12 11 12 13 11 11 11 11 10 11 11 10 10 10 12 11 11 8 8 5 6 7 10 10 11 12 12 12 11 12 14 13 13 12 17 15 14
15 14 15 15 14 13 13 13 11 12 13 13 13 13 13 14 14 13 13 12 12 12 12 12 12 11 11 12 12 12 14 13 14 15 14 14 13 14 14 13 13 12 12 12 11 12 13 13 13 13 14 14 13 12 12 11 11 11 10 10 12 13 11 11 7 7 8 7 6 4 8 9 10 10 10 11 11 11 12 13 13 14 12 13 13
13 14 15 14 16 15 15 13 12 12 11 12 11 13 13 14 14 13 13 14 14 11 12 12 12 13 13 13 13 14 15 15 15 15 15 16 15 15 14 13 12 12 12 12 11 13 14 15 14 14 14 14 12 12 13 12 12 12 11 11 10 10 10 10 9 9 10 10 7 7 4 5 10 9 12 12 11 12 11 12 11 13 14 12 12
14 14 15 14 15 15 13 12 14 11 12 12 12 12 12 12 13 13 13 13 14 12 12 11 11 12 12 13 13 14 14 15 15 15 15 14 15 15 15 14 13 15 13 12 12 13 14 15 15 14 14 14 12 13 14 13 12 12 12 11 11 12 12 9 8 10 8 8 7 7 6 6 7 9 9 9 9 9 12 13 13 14 13 13 12
14 14 14 16 17 16 15 15 14 14 15 14 12 12 12 12 12 12 12 13 14 14 15 15 14 13 12 13 13 14 15 14 15 15 16 16 15 15 15 15 13 14 13 14 14 14 15 15 15 14 14 13 13 14 14 13 13 12 12 12 13 14 14 14 11 13 11 10 7 5 5 5 5 8 9 7 9 8 9 9 10 12 13 12 12
14 14 14 16 19 20 18 16 16 17 15 15 15 14 13 12 13 13 14 13 13 14 15 15 15 15 15 15 12 13 12 13 16 16 17 17 17 16 15 15 14 14 14 15 16 15 15 14 14 13 13 13 14 13 13 13 13 14 13 15 13 16 15 17 16 14 12 9 10 9 8 6 4 6 8 8 6 7 8 8 8 10 10 11 11
14 14 14 14 17 19 19 19 18 16 16 16 16 15 15 14 14 14 14 14 14 15 14 15 15 15 15 15 14 14 14 14 15 15 15 15 16 16 16 15 15 14 14 14 15 15 14 13 13 14 14 14 14 15 14 15 13 15 14 16 16 16 18 16 17 14 15 10 8 9 8 8 6 6 9 10 9 8 8 7 8 8 8 7 8
Wind_Speed
6 5 6 6 6 6 5 6 8 8 8 7 8 7 6 6 7 6 6 7 7 8 7 7 7 6 7 7 7 7 7 7 6 6 6 6 5 6 6 7 8 6 6 5 4 4 4 3 3 4 3 5 5 5 5 5 4 4 4 4 5 5 4 5 7 9 6 5 7 8 10 11 11 11 12 12 13 12 11 10 12 12 12 10 11
6 6 5 5 5 5 6 6 7 7 8 7 7 7 6 6 6 7 8 6 8 8 8 6 6 6 6 6 6 6 6 6 6 6 7 6 6 4 6 7 7 6 6 4 3 3 3 3 4 4 4 4 4 4 4 4 4 5 4 5 5 6 6 5 6 8 11 8 8 7 8 8 9 9 12 13 12 13 13 11 9 9 10 11 11
5 4 5 5 6 5 6 7 8 8 8 7 7 6 6 6 7 9 8 7 7 8 7 7 7 6 6 6 6 6 5 5 5 6 6 6 5 4 4 6 6 6 5 4 3 3 4 4 3 3 2 3 3 3 3 3 3 4 5 4 5 6 6 5 6 8 10 10 8 9 8 9 9 11 11 10 11 11 13 12 10 9 9 10 11
6 5 6 6 6 6 6 7 8 8 8 7 7 6 7 6 7 9 8 7 9 7 7 7 6 5 6 6 6 5 6 5 6 6 5 5 4 4 3 4 4 5 5 4 3 3 4 4 1 1 1 3 3 3 3 3 3 3 4 5 4 6 6 5 6 7 8 10 9 9 9 10 9 10 10 9 10 11 11 13 12 11 11 10 11
7 8 8 7 7 7 6 7 8 8 8 7 7 7 7 7 7 8 8 8 8 8 7 5 5 5 6 5 5 6 5 5 5 5 4 3 3 3 3 2 4 5 4 4 4 4 4 3 2 1 1 3 3 4 3 4 4 4 5 5 5 6 6 6 7 7 8 10 11 8 9 9 9 10 10 11 10 9 10 12 12 12 12 11 11
8 9 8 8 7 8 6 6 7 7 7 7 7 7 8 8 8 7 8 9 8 7 6 5 5 5 5 5 5 5 5 5 5 4 4 3 3 3 2 2 3 4 4 3 3 4 4 3 3 2 1 1 2 3 4 4 5 5 5 6 6 6 6 7 7 8 8 9 10 11 8 10 10 8 10 10 11 12 10 10 11 11 12 13 10
9 9 8 8 7 7 7 6 7 6 6 6 7 7 8 8 8 7 7 9 9 7 6 6 4 5 5 5 5 4 4 4 4 4 3 3 3 3 3 3 2 3 2 3 3 4 4 4 3 2 1 0 1 3 4 5 4 6 5 6 6 6 7 7 8 8 8 9 9 9 10 8 8 12 10 9 10 10 12 13 12 11 10 10 12
9 9 8 8 8 7 6 6 6 6 5 6 7 8 8 8 8 7 8 9 8 7 6 5 4 4 4 4 3 3 4 4 4 3 3 3 3 3 3 3 2 3 3 2 3 4 4 3 3 2 2 2 2 3 4 4 4 6 7 5 6 7 7 8 8 8 9 9 9 11 9 10 10 9 10 10 10 9 8 11 14 13 15 13 11
9 9 9 8 7 7 6 5 5 5 6 6 7 8 8 8 7 7 8 8 7 7 6 5 5 5 4 4 4 4 5 4 3 3 3 3 2 3 3 2 1 3 3 1 1 2 3 3 2 4 3 4 5 5 6 6 4 5 8 6 7 7 8 7 8 8 8 8 10 9 10 10 10 11 12 11 12 13 14 12 13 13 13 15 15
10 9 9 9 8 7 7 5 6 6 7 7 7 8 8 7 8 8 8 8 7 6 5 4 4 4 4 4 4 4 4 3 4 5 4 2 3 3 2 2 1 2 4 2 1 1 2 2 1 2 4 7 8 8 8 10 10 8 8 7 8 7 8 8 9 9 9 10 10 11 12 12 12 12 12 12 12 13 14 14 15 13 13 16 15
10 10 9 9 8 7 7 7 7 7 7 7 7 8 8 8 9 9 8 7 7 6 5 5 4 3 4 4 4 4 3 3 5 5 7 6 3 4 4 4 4 3 0 3 3 2 2 1 1 4 5 6 6 9 9 11 12 13 14 14 12 9 8 9 9 9 10 10 10 11 11 13 13 12 12 13 13 14 14 14 14 14 14 15 16
11 10 10 9 8 8 7 7 7 7 7 7 7 8 9 10 9 8 8 9 7 5 5 4 4 3 3 4 4 4 3 4 5 7 9 9 7 5 5 5 4 3 3 2 1 2 3 1 2 3 4 4 5 5 7 11 13 14 15 15 15 15 13 9 10 10 10 10 11 11 12 12 13 12 13 14 15 15 14 14 14 14 16 15 13
11 11 11 10 10 9 9 8 8 7 7 7 7 8 9 9 9 8 9 8 7 7 5 4 4 3 4 4 4 2 3 6 8 9 9 9 9 7 4 4 3 4 4 3 3 2 2 1 2 4 5 8 7 5 5 7 11 15 15 14 13 15 16 17 14 10 9 10 10 12 12 13 14 13 13 16 16 17 17 15 14 14 13 15 13
11 11 11 11 10 9 9 9 8 7 7 7 7 8 9 9 7 7 8 8 8 7 5 5 4 4 4 4 3 3 4 6 8 9 9 10 10 7 3 3 3 4 4 4 1 3 3 1 2 5 5 6 6 6 5 6 9 10 10 9 8 11 14 15 15 16 12 9 10 12 14 12 13 15 16 16 17 16 17 17 17 17 16 17 17
11 11 11 10 9 9 9 9 9 7 7 7 7 8 8 7 8 7 8 8 8 8 6 5 4 4 3 3 4 4 3 5 7 9 9 9 9 7 3 3 3 3 3 3 3 1 2 3 3 4 5 7 7 9 7 8 10 9 9 8 8 9 9 10 10 9 9 9 10 11 13 13 13 15 16 15 16 15 14 17 19 19 18 15 14
11 10 10 10 10 10 10 9 8 8 8 8 8 7 7 8 8 7 7 6 6 5 4 4 4 4 3 4 4 4 2 5 7 8 8 7 6 3 3 3 3 3 3 3 3 3 3 4 4 6 6 7 11 15 14 10 8 8 9 8 8 8 8 9 14 13 12 11 11 12 12 15 17 17 16 17 16 15 14 14 15 15 15 14 14
12 11 11 10 11 10 10 10 9 9 9 9 8 7 7 7 7 6 8 7 7 6 6 4 5 5 3 3 4 3 1 2 5 7 7 5 4 3 3 3 3 3 3 3 3 3 3 3 4 5 6 7 13 16 16 13 7 8 8 8 8 7 9 9 12 15 16 17 19 20 21 21 21 20 22 24 18 18 16 15 15 14 13 14 14
11 11 11 11 11 10 10 10 10 9 9 10 9 7 6 5 5 6 9 8 7 7 5 5 4 5 5 4 4 4 2 0 2 5 5 4 3 3 2 3 3 3 4 3 3 3 4 9 8 4 6 8 14 17 16 10 7 7 7 8 10 10 10 9 9 10 14 16 18 19 20 20 20 20 20 21 21 18 15 15 17 13 14 16 19
12 12 11 10 11 10 10 10 10 10 10 9 8 8 7 7 6 6 7 7 7 6 6 6 5 4 4 5 6 5 3 3 2 3 4 3 2 2 2 3 4 4 4 5 5 5 6 7 9 8 6 10 16 16 17 11 6 7 6 7 9 10 10 11 11 12 12 12 12 13 13 15 14 13 15 21 21 18 14 15 14 13 15 15 14
11 11 11 11 11 10 10 11 10 10 10 8 7 8 7 7 7 7 6 6 7 6 6 6 6 6 4 4 4 4 3 2 1 2 3 3 3 1 2 5 4 4 4 3 6 6 5 6 8 10 11 13 15 16 16 15 7 7 6 7 9 11 10 10 11 12 12 12 13 13 14 13 13 13 14 15 15 15 15 14 13 13 14 17 14
11 11 11 11 11 11 10 11 11 9 9 9 9 7 7 8 7 7 6 6 6 5 6 5 6 5 5 4 4 3 3 3 2 3 3 3 2 4 2 2 0 1 3 3 3 4 7 7 7 10 13 15 15 16 15 15 12 7 7 7 7 10 12 9 13 15 11 12 12 12 12 12 13 13 13 13 13 13 14 13 13 12 13 13 13
10 11 11 11 11 10 10 9 9 9 8 8 8 8 6 7 7 7 7 6 7 7 5 5 5 4 3 4 4 5 5 5 2 2 3 3 3 3 4 0 1 1 4 4 5 6 6 6 7 10 14 15 15 14 15 14 14 7 9 13 15 15 11 9 9 9 10 10 11 11 12 12 13 13 13 13 14 15 14 13 13 13 12 12 12
11 11 11 11 10 10 9 10 9 7 8 8 9 8 7 7 6 7 8 7 7 7 6 5 4 4 3 3 3 4 4 3 3 2 3 4 3 4 3 1 1 1 2 3 4 6 6 6 7 12 15 15 13 14 14 13 9 8 13 14 14 15 12 8 9 9 10 10 11 12 13 13 14 14 14 15 16 16 15 14 14 14 13 13 13
12 12 11 11 10 10 10 10 9 7 8 8 8 8 7 7 7 7 8 8 7 7 6 6 5 5 5 4 3 4 3 3 4 4 3 4 2 3 2 3 3 1 0 2 4 5 6 7 8 14 13 14 13 13 13 11 8 12 13 14 13 11 8 8 8 9 9 10 11 12 13 13 13 14 15 15 15 16 16 15 13 14 13 13 13
13 12 12 11 11 10 9 9 8 8 8 9 9 8 7 7 8 7 8 8 8 8 7 6 6 6 6 6 6 4 3 2 2 3 5 3 2 1 3 4 5 4 3 3 2 4 8 11 12 12 12 12 13 11 9 9 12 11 12 13 11 7 8 8 8 9 10 11 11 12 12 13 13 14 14 14 15 14 14 14 13 12 13 12 10
13 13 11 11 11 11 10 9 8 8 8 7 7 7 8 8 8 7 7 8 7 7 6 6 6 6 6 6 7 6 4 3 3 3 3 4 4 1 3 3 3 4 3 4 7 10 11 11 13 13 11 10 8 6 5 6 9 11 12 11 7 7 7 8 8 9 9 10 11 12 12 12 13 14 14 13 13 14 15 15 15 15 14 15 14
12 11 12 11 11 11 11 9 9 8 8 6 6 6 7 7 7 7 6 6 6 6 6 5 6 6 7 7 6 6 4 4 4 4 3 5 2 1 3 2 4 5 5 6 8 9 11 10 8 8 7 9 7 6 6 7 7 8 7 7 7 7 7 7 8 9 9 10 10 11 12 12 12 13 14 14 14 14 14 15 13 13 14 13 11
13 12 13 11 10 10 10 12 12 8 8 8 7 6 6 6 6 7 7 6 6 6 5 5 6 7 7 6 6 6 6 6 5 5 7 5 2 0 1 1 3 3 5 6 6 6 6 8 8 6 7 7 7 6 6 6 5 5 7 7 7 6 7 9 9 7 8 8 9 10 11 13 13 13 13 13 13 13 14 15 14 14 14 14 14
12 12 11 10 10 9 9 9 9 8 8 7 6 6 7 7 6 5 4 5 7 7 6 7 7 7 8 8 8 7 6 6 7 8 7 6 2 1 1 2 2 2 3 5 5 6 6 6 7 8 6 7 6 6 6 6 7 7 7 7 7 7 7 7 8 9 9 9 10 11 11 12 13 13 13 14 14 14 13 14 15 15 15 13 14
12 11 10 10 10 9 8 8 8 8 8 7 6 2 7 3 2 5 5 6 9 10 12 7 8 8 7 7 8 9 9 9 9 10 10 7 5 5 5 2 2 3 5 6 4 4 4 4 6 4 6 6 6 5 6 6 6 7 8 7 7 7 7 7 7 8 9 9 9 10 11 11 12 13 13 14 14 14 14 14 14 14 14 14 14
11 10 10 10 11 10 9 8 8 7 7 7 5 5 3 3 8 8 4 7 10 9 7 11 13 12 11 7 6 7 9 9 9 10 9 6 5 4 3 2 3 5 6 5 1 0 3 5 6 6 4 4 4 4 4 4 6 6 7 7 7 8 8 7 8 8 8 8 9 9 10 11 12 12 12 13 13 14 14 13 12 13 14 13 12
12 11 10 9 10 10 9 9 7 7 6 6 6 6 6 5 2 5 6 5 5 7 9 11 11 11 12 11 8 2 3 6 9 8 7 5 1 2 3 3 3 4 6 2 2 6 2 3 6 6 5 4 4 4 3 4 5 5 5 6 8 7 7 8 8 7 7 8 9 9 10 10 11 12 12 13 13 13 13 14 14 14 15 14 14
13 11 10 10 10 10 9 9 7 7 7 7 7 7 8 7 7 3 1 5 3 5 5 4 4 6 6 7 9 8 8 7 8 7 4 1 2 3 5 6 2 4 2 2 2 6 6 3 4 6 5 3 4 3 4 3 4 5 4 5 6 7 7 7 7 7 7 8 8 9 10 10 10 11 11 12 12 12 13 14 14 13 13 14 15
13 11 10 11 11 9 9 8 8 7 6 7 7 7 7 8 8 7 6 2 0 1 1 3 5 4 3 5 5 2 2 3 4 4 1 1 1 3 4 5 6 3 6 2 1 4 5 6 5 6 6 4 3 3 3 4 4 4 5 5 6 6 7 6 7 8 7 8 8 8 9 10 10 11 12 12 11 11 12 13 13 13 14 13 14
10 11 15 13 10 10 10 9 8 7 7 7 7 7 7 7 8 8 8 8 7 7 6 5 5 8 7 4 4 5 5 5 5 4 2 1 0 2 4 6 7 4 3 1 3 4 5 6 6 7 4 2 3 2 3 4 4 4 4 5 5 6 6 6 7 7 7 7 8 8 8 9 10 10 10 10 12 13 12 12 12 13 13 13 13
10 9 10 12 10 9 8 8 7 7 8 7 7 7 6 6 7 7 7 7 7 7 4 6 4 2 4 5 6 7 7 8 7 5 4 3 2 2 3 6 5 5 5 7 6 6 4 6 5 7 6 4 3 2 2 3 4 3 3 3 4 6 6 6 6 7 7 7 7 8 8 9 9 9 10 10 11 11 11 11 11 12 12 12 11
9 8 9 9 8 8 7 7 6 7 7 8 7 7 6 6 7 6 6 6 6 6 6 5 1 3 2 3 7 9 10 9 6 4 3 4 4 2 4 5 7 6 6 8 7 6 6 6 5 6 6 3 2 3 2 3 3 3 3 2 3 4 4 5 5 5 6 7 7 8 7 7 8 9 8 10 10 10 10 10 10 11 12 14 13
11 10 10 10 8 8 7 7 7 8 8 8 7 7 7 7 7 7 7 7 7 6 6 4 5 5 6 9 7 7 5 2 3 6 6 4 3 4 6 6 5 6 8 7 7 6 6 7 6 6 7 5 3 3 2 3 2 2 2 2 2 3 4 5 5 5 5 6 7 7 7 8 8 8 8 8 9 10 11 10 10 10 11 12 11
8 13 15 15 12 10 8 8 8 7 7 8 8 8 8 7 6 6 6 6 6 6 6 6 6 6 7 8 4 1 3 3 4 7 8 7 6 5 6 6 6 7 7 8 8 6 6 7 7 7 6 5 4 3 3 3 2 2 2 1 2 3 4 5 5 5 5 6 6 6 7 7 8 7 6 7 9 9 9 10 10 10 9 10 10
8 7 10 13 9 9 8 8 8 8 8 8 7 8 7 7 7 8 7 6 7 7 7 6 7 7 8 4 4 5 6 7 7 8 7 7 7 7 6 6 7 7 8 7 7 7 7 7 7 7 7 6 5 4 4 4 2 2 2 3 1 2 3 3 4 4 5 5 5 6 6 7 7 8 7 7 7 7 8 9 9 9 8 8 9
8 8 8 9 10 8 7 7 7 8 7 8 7 8 8 9 8 7 7 8 7 8 7 7 8 8 8 10 12 11 8 8 8 7 8 8 8 7 7 7 7 7 7 7 8 7 7 7 7 7 7 6 5 5 4 4 3 2 2 4 3 3 3 3 3 4 5 4 4 5 6 6 6 7 8 8 7 8 8 7 8 8 8 8 8
8 8 8 8 9 8 8 7 7 7 7 8 7 8 7 8 8 7 8 8 8 8 8 8 8 8 9 14 12 14 9 7 7 6 7 7 7 8 7 7 7 7 7 7 7 7 7 7 8 7 7 6 6 7 4 4 4 4 3 4 5 4 3 3 3 3 4 4 4 4 4 5 6 6 6 6 7 7 8 8 8 8 8 8 8
8 7 8 8 8 8 8 8 7 6 6 6 7 6 7 8 8 8 8 8 8 8 8 8 8 7 7 9 11 11 8 7 6 7 7 7 7 7 7 8 8 8 8 8 8 7 7 7 8 7 7 8 7 7 7 7 5 5 4 4 5 6 5 4 3 4 3 3 3 3 3 4 5 6 6 7 7 7 7 7 8 8 8 8 7
7 6 7 8 8 8 8 7 7 7 7 8 8 7 7 7 7 7 8 8 8 8 8 9 8 7 7 4 4 6 7 7 7 7 8 7 7 7 8 8 8 7 7 8 8 7 7 7 7 7 7 7 7 5 6 7 6 5 5 5 5 6 6 5 5 4 3 2 2 2 3 4 5 5 6 6 6 7 7 8 8 8 7 8 8
6 7 7 6 7 7 7 7 8 8 8 7 6 7 7 7 7 7 7 7 7 7 7 7 7 6 5 4 5 6 7 7 7 7 7 8 8 9 8 8 7 8 8 8 7 6 7 7 7 7 8 8 7 7 7 7 6 7 7 6 6 6 7 7 7 5 4 3 2 1 1 2 4 5 5 5 5 5 6 6 6 7 8 8 8
7 7 7 7 7 6 6 6 7 7 7 7 7 7 7 6 7 7 7 7 7 7 7 7 7 6 7 7 7 6 6 6 7 7 7 7 8 8 8 8 7 7 7 7 6 5 7 8 8 8 8 8 8 8 7 7 7 7 6 6 7 7 7 7 4 4 5 5 4 1 0 0 2 3 4 4 4 5 5 6 5 5 5 6 7
6 7 7 6 7 7 8 7 7 6 6 7 7 7 7 7 7 6 7 7 7 7 7 7 6 7 7 7 7 7 7 7 7 7 8 9 8 8 8 7 7 7 7 7 5 6 7 8 8 9 9 8 7 8 8 7 7 7 7 7 7 6 6 5 6 6 6 6 4 4 2 0 1 2 5 4 4 5 4 5 4 5 5 5 6
6 7 7 8 8 8 8 7 7 7 7 7 7 7 7 7 7 7 7 7 7 7 7 7 6 7 7 7 7 7 7 7 8 7 7 7 8 8 8 7 8 8 7 7 6 7 7 8 9 8 9 8 8 8 8 8 7 7 7 7 7 7 8 7 5 6 5 5 4 5 4 2 1 1 1 2 3 3 5 6 5 5 5 5 6
7 7 7 7 7 8 8 8 8 7 8 7 7 7 7 7 7 7 7 7 7 7 7 7 7 7 7 7 7 7 7 6 7 7 8 8 8 8 8 8 8 8 7 8 8 8 8 8 9 8 8 8 8 8 8 8 8 7 7 7 9 12 12 12 8 8 8 6 5 4 3 3 2 1 1 1 2 2 3 3 3 4 4 4 4
7 8 8 8 8 8 7 8 8 7 7 7 7 7 7 7 7 7 7 7 7 7 7 7 7 7 7 7 7 7 7 7 8 8 8 8 8 8 8 8 8 8 8 8 9 8 8 8 8 8 8 8 8 8 8 8 8 8 7 9 11 13 13 14 13 12 8 6 6 6 5 4 3 2 2 2 1 2 3 4 3 4 3 4 4
7 8 8 8 8 7 7 7 7 7 7 7 7 7 7 7 7 7 7 7 7 8 8 8 8 8 7 8 8 8 8 8 8 8 8 8 8 8 8 7 8 8 8 8 8 8 8 8 8 8 8 8 8 8 8 8 8 8 11 13 13 13 14 13 11 12 13 8 5 6 5 5 4 4 4 3 1 1 3 4 4 3 2 2 2
Wind_Direction
133 139 135 131 126 122 117 115 114 114 111 109 107 107 108 106 105 108 94 89 91 81 79 73 69 67 60 55 54 51 49 42 34 41 44 38 37 66 66 75 86 90 90 80 77 83 84 83 59 46 46 46 26 18 16 9 0 353 339 338 330 319 320 316 316 311 305 303 305 315 317 319 321 320 317 320 319 317 315 310 313 316 315 313 313
150 151 138 127 118 115 116 117 115 110 110 110 108 107 106 104 106 96 94 92 89 85 80 74 70 64 64 56 56 55 53 48 40 46 43 37 27 43 80 84 91 97 95 91 87 91 94 79 54 51 46 52 26 20 3 359 355 347 339 339 327 322 317 315 308 306 311 316 313 310 308 314 310 314 315 317 315 316 315 317 310 306 312 312 311
148 131 123 113 111 114 118 120 120 117 113 112 110 109 105 103 102 101 98 91 84 85 83 79 72 69 67 59 57 57 51 52 46 50 45 42 34 23 63 100 108 108 104 117 122 106 71 67 65 68 48 48 15 360 358 352 344 342 329 322 317 308 306 302 302 303 305 308 309 311 312 315 311 313 314 310 310 314 313 315 314 310 305 303 301
135 125 114 111 116 118 122 126 121 119 117 118 115 114 111 102 103 101 101 96 90 82 83 83 79 74 72 63 60 59 51 46 47 45 46 41 35 31 42 103 108 117 128 139 133 102 96 79 76 85 73 56 359 358 349 341 331 326 317 309 298 295 291 292 288 287 294 303 310 308 309 311 307 307 308 304 308 313 310 307 306 302 300 297 300
134 127 120 121 126 126 128 126 123 121 122 122 120 118 108 103 105 108 105 98 95 92 83 79 81 74 71 67 64 57 53 51 51 42 38 34 37 42 35 104 121 129 140 154 140 115 110 132 160 152 85 50 347 355 335 335 317 311 310 303 299 290 293 291 290 284 288 295 298 296 299 296 297 302 304 308 308 301 303 304 307 305 302 296 295
132 125 123 127 132 129 129 126 126 128 130 127 126 117 108 108 110 108 107 102 95 91 94 86 83 79 72 69 66 63 56 55 52 47 33 26 29 27 36 58 123 134 136 133 129 138 136 159 165 161 130 81 342 326 324 316 309 308 305 304 299 297 294 295 290 290 287 285 293 301 301 303 306 301 305 306 309 310 304 298 301 302 301 301 290
135 132 134 133 130 131 131 131 129 131 131 131 124 115 113 116 114 113 111 107 105 101 95 92 78 79 74 69 63 63 62 54 51 40 39 31 27 25 14 35 71 135 148 145 133 143 153 151 164 177 174 206 309 314 302 307 305 305 301 299 300 301 301 297 299 298 294 292 293 289 296 297 299 307 307 301 298 298 306 311 308 306 294 294 302
138 133 131 131 132 134 132 131 130 127 128 128 124 120 118 117 117 116 111 107 106 107 105 99 90 79 76 73 67 66 60 53 42 32 34 29 27 22 10 36 40 147 159 169 154 162 157 141 162 202 213 225 253 297 285 293 297 302 302 301 304 306 303 303 303 302 300 298 298 303 302 303 304 292 297 304 304 301 305 311 307 311 308 303 298
137 135 135 135 136 133 130 128 123 123 126 127 125 124 123 121 117 114 108 105 105 106 106 103 97 86 70 68 61 51 55 44 29 24 19 22 37 17 359 16 37 156 166 183 219 157 136 159 180 222 242 282 274 288 297 295 299 303 305 310 308 309 305 303 303 302 300 302 303 302 305 307 305 309 314 318 320 317 315 309 298 301 299 299 299
144 143 140 140 139 136 132 127 127 127 129 130 130 125 122 118 115 112 108 106 107 107 104 100 96 93 84 67 61 54 49 32 24 18 14 20 24 24 6 349 24 193 169 182 242 33 123 160 193 217 263 268 275 297 305 309 311 309 305 312 311 309 305 307 306 304 305 308 309 312 312 309 310 310 311 312 311 310 310 310 306 302 296 296 288
144 144 142 143 141 138 133 134 135 135 136 131 127 122 121 121 119 117 115 113 109 107 101 96 90 85 89 87 66 58 41 30 19 37 41 44 56 46 29 12 26 12 209 199 195 118 111 123 250 271 269 286 294 296 310 317 319 318 316 314 311 308 309 309 301 303 308 306 307 309 306 306 306 308 311 313 313 313 311 308 305 304 303 306 307
148 146 145 145 143 141 138 140 140 141 137 135 129 123 124 125 125 125 121 112 110 107 102 102 100 96 89 75 67 55 45 19 40 54 49 46 51 57 47 41 39 43 37 328 268 117 156 212 271 272 275 279 300 315 318 319 319 320 320 318 316 311 303 294 298 306 304 309 310 307 306 303 306 311 313 315 314 311 306 303 302 300 300 296 293
148 148 151 150 152 149 146 147 145 144 143 138 132 126 126 129 132 131 125 124 120 115 121 114 109 107 95 89 75 54 52 22 39 50 53 57 61 63 46 39 32 29 20 17 73 131 188 227 274 289 283 302 318 318 316 314 320 322 320 321 319 316 312 308 300 289 291 298 298 302 303 305 308 309 311 310 312 309 310 308 304 297 291 288 290
151 153 154 155 153 150 150 148 148 147 142 138 134 129 130 136 140 134 128 126 125 126 130 127 124 101 98 98 87 59 46 25 44 52 54 57 61 61 48 43 30 28 25 19 62 160 207 211 270 307 321 325 319 319 318 319 324 322 323 323 319 314 313 309 307 302 299 293 297 298 299 302 300 302 306 311 314 311 310 306 305 299 295 292 290
155 156 157 154 152 152 152 150 147 145 143 139 135 133 132 133 134 139 137 138 137 145 148 138 131 114 106 104 91 67 37 27 53 57 57 57 52 54 39 41 33 24 15 19 18 320 270 261 266 299 320 326 318 317 327 333 325 320 320 320 318 313 310 311 309 309 304 299 294 292 294 296 294 297 304 308 305 303 302 302 302 298 292 287 283
154 155 157 158 157 157 154 151 148 147 145 141 137 138 137 139 138 142 136 137 136 131 138 136 135 133 129 101 87 73 33 40 63 63 63 62 63 43 35 41 33 19 13 9 355 328 275 274 294 315 322 320 315 322 331 337 324 322 322 318 316 312 309 299 301 299 297 297 297 297 298 295 292 294 297 303 306 304 301 296 295 292 294 294 294
160 161 161 161 161 159 157 154 151 151 148 144 143 145 143 140 136 132 129 138 140 150 161 162 158 149 146 121 107 100 56 36 65 68 58 57 62 41 35 31 31 18 359 345 324 324 331 309 287 297 312 313 318 326 329 340 323 323 320 318 314 316 314 315 313 309 307 305 303 302 301 299 295 294 300 303 306 311 310 304 300 302 298 299 298
164 164 163 163 160 159 159 155 153 153 151 150 150 148 144 139 142 138 134 140 146 161 161 158 169 164 154 156 152 139 156 254 82 69 64 58 71 63 44 50 24 20 351 333 323 337 329 334 330 322 320 317 322 326 326 336 325 317 320 322 327 327 321 324 323 317 312 309 308 307 306 303 300 301 304 310 314 314 311 309 307 305 300 299 302
168 165 161 159 159 158 157 154 154 155 153 154 152 152 156 156 152 136 136 136 147 154 157 164 179 180 169 165 175 153 177 193 154 102 90 64 69 62 59 58 40 12 356 346 346 347 329 322 317 319 318 319 324 327 327 333 323 317 317 324 327 326 324 327 323 323 325 323 318 317 314 311 309 310 314 315 315 313 311 304 302 303 300 300 301
164 158 158 158 156 155 156 155 156 156 156 154 155 157 157 147 149 144 146 147 153 164 165 169 175 186 172 167 175 171 174 210 212 149 111 80 85 98 70 51 26 356 348 356 347 330 324 319 320 324 329 329 329 327 326 327 330 318 331 333 328 325 323 321 321 324 321 321 316 318 315 314 313 316 319 320 317 315 313 308 303 301 298 300 299
158 157 154 154 155 156 157 157 156 158 158 158 158 156 155 154 152 149 156 158 157 170 177 181 178 177 169 172 172 196 194 193 204 124 119 116 102 98 81 84 190 321 350 347 336 322 321 320 313 320 331 331 327 325 325 324 332 337 337 333 319 311 318 324 323 324 321 321 321 320 319 320 320 321 321 319 318 320 317 310 307 302 303 302 300
151 150 152 154 155 154 155 155 154 154 155 152 153 157 163 155 158 159 158 162 172 181 187 179 179 182 172 171 183 197 223 215 202 173 157 159 116 92 84 49 231 338 10 351 335 331 317 306 310 316 325 327 324 323 325 328 334 348 334 329 330 334 330 319 319 322 324 325 324 324 324 325 325 324 321 322 324 324 321 316 315 314 306 302 301
149 149 151 153 154 154 154 154 154 153 157 159 157 163 165 160 163 164 166 175 180 188 190 185 175 182 184 191 199 208 220 228 197 190 203 185 137 93 101 132 206 112 55 345 318 305 303 305 303 319 327 323 325 327 325 329 342 339 335 339 337 330 329 330 326 328 328 327 328 329 327 327 330 329 328 331 330 329 327 323 322 321 315 312 307
149 150 152 153 152 155 156 156 155 156 159 160 160 158 163 165 164 173 177 178 184 192 201 184 173 172 182 192 214 231 228 223 224 214 206 196 113 81 57 40 62 23 254 288 297 297 308 314 313 314 317 326 330 327 322 330 341 340 341 339 339 333 332 331 333 331 328 331 333 330 330 328 327 328 332 333 328 327 325 322 324 325 321 318 314
151 152 154 155 156 157 156 157 157 159 164 161 160 163 167 165 168 181 176 185 186 192 195 179 177 181 170 181 196 213 227 201 224 247 243 223 197 117 44 26 7 11 346 314 303 300 298 300 310 324 330 331 331 327 328 338 343 341 339 340 341 340 336 333 332 334 336 337 332 329 329 329 327 322 322 326 323 323 329 330 330 329 325 325 318
153 154 155 156 158 157 156 159 160 164 165 167 164 165 168 171 173 180 180 188 192 190 189 178 180 176 179 183 185 194 207 218 246 270 282 277 264 51 56 34 356 341 307 291 299 307 315 330 334 338 336 334 333 325 325 329 338 344 341 341 340 338 336 333 334 340 338 333 333 331 327 324 328 327 324 325 332 338 339 337 336 340 342 339 337
152 153 157 158 158 158 158 163 165 168 167 166 163 166 169 173 173 177 185 191 196 197 180 171 171 175 179 182 183 187 201 213 234 262 266 266 271 3 22 0 348 348 352 346 344 341 327 329 321 309 297 305 317 319 327 344 352 348 339 336 334 334 333 335 337 337 335 333 329 327 325 327 324 330 337 338 339 340 345 341 338 339 340 342 337
156 159 158 157 158 160 161 164 165 169 172 169 168 171 181 176 175 181 191 194 194 212 190 184 174 173 170 170 168 175 200 212 233 231 243 242 258 14 43 359 352 355 338 327 322 316 315 321 328 347 352 356 346 344 349 345 345 344 336 334 333 330 326 324 329 332 332 328 323 327 329 332 336 337 337 340 339 338 345 348 345 341 345 343 355
154 155 155 155 159 162 161 165 169 169 172 175 179 176 178 179 179 207 232 197 190 188 196 184 179 170 158 161 162 180 193 218 230 214 218 197 189 242 320 291 305 326 304 309 316 317 335 340 351 343 351 338 331 334 341 346 339 338 338 340 336 335 338 347 346 340 333 334 336 334 333 334 334 339 339 340 343 342 345 348 351 350 345 354 2
153 156 158 159 159 160 162 165 166 169 171 174 162 98 18 60 162 183 199 221 213 191 156 173 172 158 159 180 172 168 196 212 220 214 220 214 217 220 237 298 336 302 301 295 266 282 305 327 312 323 318 328 321 330 336 328 334 340 336 338 338 338 342 337 340 336 332 332 333 336 337 336 338 341 342 342 339 343 346 351 350 350 354 357 356
157 157 160 164 164 163 164 166 171 169 168 162 160 147 124 31 27 12 325 160 162 180 163 148 152 161 153 174 225 226 199 198 202 203 211 212 224 254 331 5 329 306 301 340 7 255 301 326 311 318 303 296 296 314 315 321 326 334 332 333 336 340 337 337 335 332 332 336 339 338 338 341 339 340 342 343 342 341 343 348 349 354 1 357 357
161 164 164 160 159 162 167 169 165 163 167 163 152 152 148 112 18 7 24 49 97 127 138 149 165 169 165 160 161 215 221 198 192 202 210 214 222 355 318 311 286 267 280 231 289 300 296 286 298 293 292 307 305 303 307 311 313 325 329 342 339 336 339 334 329 329 333 340 339 339 341 341 340 340 341 344 345 344 347 351 356 357 359 1 5
160 160 159 159 163 167 169 169 167 169 168 160 158 159 150 155 150 170 350 23 75 110 115 140 168 175 172 173 167 164 186 197 207 215 217 110 40 343 314 302 271 264 168 134 214 287 306 294 276 281 276 274 296 300 302 292 296 316 327 332 332 329 328 324 324 340 341 338 338 340 340 341 342 341 342 342 348 348 351 354 355 357 358 1 4
160 160 162 164 166 171 174 173 173 176 170 159 162 165 169 163 164 158 156 167 340 339 242 196 192 194 201 186 186 199 195 196 206 213 168 100 29 348 334 306 308 240 168 200 208 281 301 307 299 275 264 261 273 294 315 314 304 308 322 325 320 322 324 327 347 342 339 339 342 339 343 342 344 348 346 345 347 351 355 355 355 359 3 4 3
160 161 161 164 171 174 179 176 173 171 164 169 168 182 181 175 163 161 167 170 183 188 210 228 223 200 205 210 223 223 230 229 228 228 207 198 142 326 339 345 337 347 335 234 244 262 285 290 288 275 251 259 281 263 291 302 298 311 319 312 323 328 332 341 340 337 339 337 341 345 339 343 345 344 345 345 350 352 352 353 355 357 0 2 2
159 158 165 168 171 175 179 176 170 171 174 176 177 189 183 169 170 183 184 180 177 192 222 225 222 233 207 235 232 230 232 232 233 233 227 216 205 52 321 294 298 286 293 296 290 286 273 267 269 266 246 240 258 266 259 288 294 288 281 295 318 322 328 336 337 338 336 339 338 338 342 345 345 345 343 347 353 349 347 351 352 354 357 2 358
154 156 161 173 176 174 171 171 166 174 172 174 182 190 187 184 188 182 180 181 191 201 201 220 239 296 294 270 239 238 236 239 250 265 252 230 201 181 218 237 252 279 286 280 282 281 290 281 262 260 246 231 246 247 256 282 305 296 282 276 291 319 325 317 325 332 341 341 337 340 343 339 340 344 347 346 348 350 349 350 349 352 354 359 3
159 162 164 175 175 172 168 178 176 166 175 184 191 189 187 191 191 185 182 192 196 196 213 215 194 206 219 244 217 215 249 249 274 295 282 256 209 222 230 234 237 238 257 265 260 259 267 273 271 250 239 218 237 243 241 275 292 292 260 279 296 296 305 322 330 335 341 343 340 339 338 339 341 341 344 349 348 347 348 349 351 350 353 359 7
164 167 169 171 171 175 179 183 182 175 183 189 193 189 192 191 191 189 192 195 196 208 218 210 199 210 226 237 248 154 139 204 225 244 249 249 235 227 229 233 235 243 248 254 266 260 251 262 259 243 234 222 229 229 225 251 260 280 246 230 295 314 331 331 330 327 338 343 335 337 337 339 338 340 337 348 353 346 344 348 354 355 352 353 356
161 166 172 171 172 173 168 177 183 187 185 186 195 193 190 194 193 193 194 188 202 209 215 213 219 223 230 220 206 160 183 214 220 228 233 246 246 236 211 231 235 237 245 252 248 248 250 250 246 231 225 229 226 232 224 228 227 247 223 197 222 295 295 294 303 315 319 319 335 335 342 338 336 334 343 358 347 342 350 349 347 351 353 353 349
166 172 171 180 182 174 177 176 183 193 189 189 185 187 197 199 199 196 193 197 202 206 214 216 221 231 224 223 210 186 195 209 221 221 224 228 235 239 230 229 231 240 241 243 249 244 238 243 235 225 228 225 226 225 227 223 222 222 222 217 208 239 270 282 283 295 301 321 339 338 338 337 339 348 345 336 341 350 349 351 354 354 355 357 357
171 170 174 182 182 183 186 193 197 194 191 189 189 191 189 195 197 195 196 201 202 205 211 219 226 229 235 229 218 196 201 221 213 217 230 231 236 240 237 238 234 232 237 237 237 236 234 227 224 217 220 226 223 232 218 229 229 232 233 216 219 228 250 268 272 279 290 305 321 331 333 335 336 340 337 340 348 347 351 356 355 355 358 359 1
171 176 177 177 181 189 189 197 192 192 193 197 209 206 196 184 188 191 195 200 202 202 206 218 231 234 240 237 222 203 212 222 219 223 228 231 232 238 240 240 238 233 230 235 232 222 216 211 216 217 218 221 217 212 203 218 216 217 218 223 223 223 230 244 258 266 267 291 307 318 333 340 346 343 341 345 346 347 355 354 357 360 357 1 2
178 170 177 180 187 190 195 189 190 196 195 200 201 200 198 195 187 180 185 196 204 207 207 213 216 215 229 223 185 182 208 217 222 224 227 229 231 234 237 241 242 242 240 238 237 222 213 212 219 228 230 232 230 221 216 215 200 202 206 213 226 230 232 235 237 239 230 237 270 307 343 343 343 346 343 346 350 354 350 356 357 356 358 0 359
182 174 174 180 188 189 195 192 193 194 196 192 202 211 208 198 193 193 189 196 205 208 214 217 216 216 232 220 188 196 206 211 217 221 226 226 228 233 236 240 239 240 243 244 234 213 213 217 222 225 233 239 235 228 226 223 212 208 198 193 210 227 230 223 223 219 196 190 221 235 343 355 340 333 337 335 346 348 350 352 348 356 3 0 4
188 180 178 179 182 194 192 192 190 186 187 191 198 211 218 219 215 205 203 207 207 209 217 223 226 225 228 232 220 215 222 217 222 222 227 231 232 237 239 238 241 242 242 246 239 215 218 217 220 224 230 235 234 233 233 230 225 221 207 198 205 218 222 219 207 182 197 203 202 187 191 309 326 322 320 331 331 347 347 345 360 11 4 353 360
187 187 182 170 175 204 207 197 182 187 186 189 194 199 209 214 219 223 219 217 217 218 220 227 225 230 228 225 219 222 222 219 226 225 227 230 232 235 240 241 241 247 251 248 237 228 227 227 226 227 230 233 232 234 236 232 230 228 222 212 213 220 224 220 207 200 206 213 198 166 178 166 282 311 327 339 345 350 346 352 355 355 355 359 354
184 183 182 181 187 198 205 194 196 195 197 194 196 200 205 209 215 220 227 227 227 225 227 232 229 230 226 230 226 226 225 225 229 232 235 237 239 240 241 242 240 241 246 251 244 235 231 232 232 231 234 236 233 235 238 235 231 228 229 222 213 210 211 206 213 221 218 203 203 197 173 175 196 244 292 326 326 332 349 337 339 350 2 359 0
184 185 185 188 188 195 196 197 199 198 203 201 201 205 210 210 217 219 220 223 224 224 220 222 226 224 223 230 227 228 230 230 234 237 237 239 240 242 241 241 242 244 241 245 247 241 237 235 233 231 231 233 233 235 240 239 234 230 228 228 220 212 211 208 208 220 213 201 207 214 201 171 180 205 225 273 304 315 315 314 334 343 347 360 15
189 187 186 186 191 198 198 197 197 202 205 204 201 208 207 209 214 216 218 219 224 227 228 226 229 230 228 234 235 234 229 228 231 234 236 239 240 241 242 242 242 243 239 241 244 242 238 237 235 234 234 236 237 239 241 241 238 233 231 229 222 213 212 212 212 216 209 203 202 204 205 204 191 202 220 232 257 324 323 316 314 323 346 352 6
185 187 188 187 191 196 192 193 201 208 209 207 209 213 216 216 220 221 217 216 220 226 227 229 231 236 237 236 234 233 231 231 231 232 235 237 240 241 241 241 242 243 243 243 245 243 238 237 236 234 232 234 235 238 240 242 239 237 235 233 226 219 216 211 213 221 215 210 205 201 199 210 215 232 253 254 240 284 298 300 304 310 323 320 321